This demonstration page uses our WeatherBlox Daily Observations layout. Learn more.

Left ArrowRight Arrow

39.01783, -85.05884

Hourly Observations for April 18, 2018

Temp ( °F °C ) Dew Point ( °F °C ) Humidity (%) Winds ( mph kmh ) Pressure ( in mb ) Visibility ( mi km ) Precip ( " mm )
12:52 am 00:52 Partly Cloudy 38 3.3 26 -3.3 62 62 ENE 13 20 29.90 1013 10 16 N/A
1:52 am 01:52 Cloudy 38 3.3 27 -2.8 65 65 E 9 15 29.91 1013 10 16 N/A
2:52 am 02:52 Cloudy 38 3.3 26 -3.3 62 62 E 10 17 29.91 1013 10 16 N/A
3:52 am 03:52 Cloudy 38 3.3 27 -2.8 65 65 ESE 8 13 29.90 1013 10 16 N/A
4:52 am 04:52 Mostly Cloudy 37 2.8 27 -2.8 67 67 E 8 13 29.88 1012 10 16 N/A
5:52 am 05:52 Mostly Cloudy 37 2.8 27 -2.8 67 67 ESE 7 11 29.88 1012 10 16 N/A
6:52 am 06:52 Mostly Cloudy 37 2.8 27 -2.8 67 67 E 7 11 29.87 1012 10 16 N/A
7:52 am 07:52 Mostly Cloudy 38 3.3 28 -2.2 68 68 ESE 9 15 29.86 1011 10 16 N/A
8:52 am 08:52 Partly Cloudy 40 4.4 28 -2.2 63 63 ESE 9 15 29.87 1011 10 16 N/A
9:52 am 09:52 Mostly Cloudy 43 6.1 29 -1.7 58 58 ESE 9 15 29.85 1011 10 16 N/A
10:52 am 10:52 Mostly Sunny 48 8.9 32 undefined 54 54 SE 12 19 29.80 1009 10 16 N/A
11:52 am 11:52 Sunny 52 11.1 35 1.7 53 53 SE 12 19 29.76 1008 10 16 N/A
12:52 pm 12:52 Sunny 57 13.9 39 3.9 51 51 S 7 11 29.75 1007 10 16 N/A
1:52 pm 13:52 Sunny 62 16.7 43 6.1 50 50 S 9 15 29.71 1006 10 16 N/A
2:52 pm 14:52 Mostly Sunny 66 18.9 46 7.8 49 49 SSW 12 19 29.68 1005 10 16 N/A
3:52 pm 15:52 Mostly Cloudy 71 21.7 51 10.6 49 49 SSW 10 17 29.65 1004 10 16 N/A
4:52 pm 16:52 Cloudy 71 21.7 51 10.6 49 49 SW 8 13 29.63 1003 10 16 N/A
5:52 pm 17:52 Cloudy 72 22.2 52 11.1 50 50 SW 5 7 29.61 1003 10 16 N/A
6:52 pm 18:52 Mostly Cloudy 72 22.2 54 12.2 53 53 SSW 9 15 29.58 1002 10 16 N/A
7:43 pm 19:43 Cloudy with Heavy Rain 68 20 56 13.3 65 65 WSW 21 33 29.59 1002 2 3 0.02 0.51
7:47 pm 19:47 Cloudy with Heavy Rain 64 18 57 14 78 78 W 15 24 29.59 1002 1 2 0.15 3.81
7:52 pm 19:52 Cloudy with Light Rain 64 17.8 57 13.9 78 78 W 16 26 29.62 1003 6 10 0.24 6.10
8:52 pm 20:52 Cloudy with Light Rain 60 15.6 50 10 70 70 NW 28 44 29.67 1005 9 14 0.03 0.76
9:52 pm 21:52 Cloudy 55 12.8 43 6.1 64 64 NW 26 43 29.75 1008 10 16 N/A
10:52 pm 22:52 Partly Cloudy 50 10 36 2.2 59 59 WNW 22 35 29.80 1009 10 16 N/A
11:52 pm 23:52 Partly Cloudy 46 7.8 35 1.7 66 66 NW 17 28 29.84 1011 10 16 N/A

Powered by AerisWeather